Location: Cartignies
(50.0929°N, 3.8447°E)
Time: 13:53:11
(UTC+00:00)

ISS - Pass Details

Date: 12 January 2026
Orbit: 413 x 428 km, 51.6° (Epoch: 16 February)

Event Time Altitude Azimuth Distance (km) Brightness Sun altitude
Rises 18:07:00 0° 206° (SSW) 2,352 0.6 -18.5°
Reaches altitude 10° 18:09:28 10° 188° (S) 1,497 -0.7 -18.9°
Enters shadow 18:11:05 17° 161° (SSE) 1,130 -1.7 -19.2°
